, AL

(GMT )
Montgomery

Weather History for KMGM - September, 2012

Change the Weather History Date:

Sunday, September 30, 2012

  Actual Average Record
Temperature  
Mean Temperature 72 °F 72 °F  
Max Temperature 75 °F 83 °F 97 °F (1904)
Min Temperature 69 °F 60 °F 39 °F (1967)
Degree Days  
Heating Degree Days 0 1  
Month to date heating degree days 0 2  
Since 1 July heating degree days 0 4  
Cooling Degree Days 7 7  
Month to date cooling degree days 334 341  
Year to date cooling degree days 2500 2130  
Growing Degree Days 22 (Base 50)    
Moisture  
Dew Point 69 °F    
Average Humidity 92    
Maximum Humidity 97    
Minimum Humidity 87    
Precipitation  
Precipitation 1.04 in 0.12 in 3.22 in (1965)
Month to date precipitation 4.74 3.97  
Year to date precipitation 33.75 40.68  
Sea Level Pressure  
Sea Level Pressure 29.80 in    
Wind  
Wind Speed 6 mph (East)    
Max Wind Speed 16 mph    
Max Gust Speed 28 mph    
Visibility 6 miles    
Events Rain    
T = Trace of Precipitation, MM = Missing Value Source: NWS Daily Summary

Daily Weather History Graph

Daily Weather History Graph

Search for Another Location

Airport or City:

Trip Planner

Search our weather history database for the weather conditions in past years. The results will help you decide how hot, cold, wet, or windy it might be!

Date:

Astronomy

Sep. 30, 2012 Rise Set
Actual Time 6:39 AM CDT 6:31 PM CDT
Civil Twilight 6:14 AM CDT 6:55 PM CDT
Nautical Twilight 5:46 AM CDT 7:23 PM CDT
Astronomical Twilight 5:17 AM CDT 7:52 PM CDT
Moon 6:40 PM CDT (9/30) 7:04 AM CDT (9/30)
Length of Visible Light 12h 40m
Length of Day
11h 51m
Full, 100% of the Moon is Illuminated
Sep 30
Full
Oct 8
Last Quarter
Oct 15
New
Oct 21
First Quarter
Oct 29
Full

Hourly Weather History & Observations

Time (CDT) Temp. Dew Point Humidity Pressure Visibility Wind Dir Wind Speed Gust Speed Precip Events Conditions
12:53 AM 73.9 °F 71.1 °F 91% 29.88 in 5.0 mi WSW 3.5 mph - 0.00 in Rain Light Rain
1:53 AM 73.0 °F 70.0 °F 90% 29.88 in 6.0 mi West 4.6 mph - 0.02 in Rain Light Rain
2:53 AM 72.0 °F 68.0 °F 87% 29.88 in 5.0 mi SW 4.6 mph - 0.01 in Rain Light Rain
3:53 AM 70.0 °F 66.9 °F 90% 29.86 in 7.0 mi Calm Calm - 0.03 in Rain Light Rain
4:53 AM 69.1 °F 66.9 °F 93% 29.85 in 7.0 mi WNW 3.5 mph - 0.02 in Rain Light Rain
5:53 AM 70.0 °F 66.9 °F 90% 29.85 in 2.5 mi NNW 4.6 mph - 0.06 in Rain Rain
6:05 AM 69.8 °F 66.2 °F 88% 29.85 in 3.0 mi North 3.5 mph - 0.02 in Rain Light Rain
6:53 AM 70.0 °F 68.0 °F 93% 29.85 in 4.0 mi Calm Calm - 0.03 in Rain Light Rain
7:01 AM 69.8 °F 68.0 °F 94% 29.86 in 2.0 mi NNE 3.5 mph - 0.01 in Rain Light Rain
7:12 AM 69.8 °F 66.2 °F 88% 29.85 in 2.0 mi NNE 10.4 mph - 0.03 in Rain Rain
7:48 AM 69.8 °F 66.2 °F 88% 29.86 in 3.0 mi North 9.2 mph - 0.04 in   Overcast
7:53 AM 69.1 °F 66.9 °F 93% 29.85 in 3.0 mi North 8.1 mph - 0.04 in   Overcast
8:00 AM 69.8 °F 66.2 °F 88% 29.86 in 3.0 mi North 8.1 mph - N/A   Overcast
8:38 AM 69.8 °F 66.2 °F 88% 29.86 in 7.0 mi NNE 5.8 mph - N/A   Overcast
8:53 AM 70.0 °F 66.9 °F 90% 29.85 in 9.0 mi NE 4.6 mph - N/A   Overcast
9:53 AM 71.1 °F 68.0 °F 90% 29.86 in 10.0 mi ENE 4.6 mph - N/A   Overcast
10:02 AM 71.6 °F 68.0 °F 88% 29.86 in 10.0 mi East 5.8 mph - N/A   Overcast
10:53 AM 72.0 °F 68.0 °F 87% 29.85 in 6.0 mi East 6.9 mph - 0.00 in Rain Light Rain
11:51 AM 73.4 °F 68.0 °F 83% 29.85 in 10.0 mi East 5.8 mph - 0.01 in   Overcast
11:53 AM 73.0 °F 69.1 °F 87% 29.84 in 10.0 mi East 6.9 mph - 0.01 in   Overcast
12:03 PM 73.4 °F 69.8 °F 88% 29.84 in 10.0 mi East 6.9 mph - N/A   Overcast
12:48 PM 73.4 °F 69.8 °F 88% 29.83 in 1.0 mi Calm Calm - 0.02 in Rain Heavy Rain
12:53 PM 73.0 °F 69.1 °F 87% 29.82 in 1.0 mi ESE 3.5 mph - 0.05 in Rain Heavy Rain
1:51 PM 73.4 °F 69.8 °F 88% 29.79 in 6.0 mi East 5.8 mph - 0.03 in   Overcast
1:53 PM 73.9 °F 71.1 °F 91% 29.78 in 6.0 mi East 6.9 mph - 0.03 in   Overcast
2:53 PM 73.9 °F 71.1 °F 91% 29.76 in 8.0 mi East 8.1 mph - N/A   Overcast
3:53 PM 73.9 °F 71.1 °F 91% 29.74 in 7.0 mi East 6.9 mph - 0.01 in Rain Light Rain
4:22 PM 73.4 °F 71.6 °F 94% 29.74 in 4.0 mi East 10.4 mph - 0.01 in Rain Light Rain
4:44 PM 73.4 °F 71.6 °F 94% 29.72 in 2.5 mi East 10.4 mph - N/A Rain Heavy Rain
4:50 PM 73.4 °F 71.6 °F 94% 29.71 in 1.2 mi East 13.8 mph - 0.14 in Rain Heavy Rain
4:53 PM 73.9 °F 71.1 °F 91% 29.72 in 1.2 mi SE 13.8 mph - 0.17 in Rain Heavy Rain
4:58 PM 73.4 °F 71.6 °F 94% 29.73 in 0.8 mi WNW 13.8 mph 27.6 mph 0.03 in Rain Heavy Rain
5:03 PM 73.4 °F 69.8 °F 88% 29.73 in 1.0 mi Variable 6.9 mph 27.6 mph 0.18 in Rain Light Rain
5:19 PM 73.4 °F 69.8 °F 88% 29.74 in 2.0 mi SW 4.6 mph - 0.26 in Rain Light Rain
5:26 PM 73.4 °F 69.8 °F 88% 29.73 in 3.0 mi Calm Calm - 0.27 in Rain Light Rain
5:53 PM 73.0 °F 70.0 °F 90% 29.73 in 10.0 mi South 5.8 mph - 0.27 in Rain Light Rain
6:53 PM 72.0 °F 69.1 °F 91% 29.73 in 10.0 mi East 3.5 mph - 0.00 in   Overcast
7:53 PM 72.0 °F 69.1 °F 91% 29.73 in 10.0 mi ESE 4.6 mph - 0.00 in Rain Light Rain
8:53 PM 72.0 °F 69.1 °F 91% 29.73 in 10.0 mi ESE 9.2 mph - 0.03 in Rain Light Rain
9:10 PM 71.6 °F 69.8 °F 94% 29.73 in 10.0 mi ESE 10.4 mph - 0.01 in Rain Light Rain
9:29 PM 71.6 °F 69.8 °F 94% 29.73 in 10.0 mi SE 10.4 mph - 0.01 in Rain Light Rain
9:53 PM 72.0 °F 69.1 °F 91% 29.73 in 5.0 mi SE 8.1 mph - 0.04 in Rain Rain
10:38 PM 71.6 °F 69.8 °F 94% 29.72 in 5.0 mi ESE 10.4 mph - 0.10 in Rain Light Rain
10:53 PM 72.0 °F 70.0 °F 93% 29.70 in 5.0 mi East 8.1 mph - 0.14 in Rain Rain
11:13 PM 71.6 °F 69.8 °F 94% 29.70 in 10.0 mi ESE 8.1 mph - N/A Rain Light Rain
11:28 PM 71.6 °F 69.8 °F 94% 29.70 in 10.0 mi ESE 10.4 mph - 0.01 in   Overcast
11:53 PM 72.0 °F 70.0 °F 93% 29.68 in 10.0 mi ESE 8.1 mph - 0.01 in   Overcast